Location: Aultman
(40.9284°N, 81.4173°W)
Time: 13:53:57
(UTC+00:00)

CZ-2C R/B - Pass Details

Date: 24 January 2021
Orbit: 704 x 908 km, 98.1° (Epoch: 01 March)

Event Time Altitude Azimuth Distance (km) Brightness Sun altitude
Rises 23:09:50 0° 146° (SE) 3,299 6.1 -7.2°
Reaches altitude 10° 23:12:12 10° 140° (SE) 2,404 5.4 -7.6°
Maximum altitude 23:17:15 44° 70° (ENE) 1,166 3.5 -8.5°
Drops below altitude 10° 23:22:33 10° 0° (N) 2,536 5.5 -9.5°
Sets 23:25:06 0° 354° (N) 3,501 6.3 -10.0°
